Regional Weather Roundup
Issued by NWS

Home | Current Version | Previous Version | Graphics & Text | Print | Product List | Glossary On
Versions: 1 2 3 4 5 6 7 8 9 10 11 12 13 14 15 16 17 18 19 20 21 22 23 24 25 26 27 28 29 30 31 32 33 34 35 36 37 38 39 40 41 42 43 44 45 46 47 48 49 50
000
ASUS43 KMPX 060010
RWRMN
WEATHER ROUNDUP FOR MINNESOTA
NATIONAL WEATHER SERVICE TWIN CITIES/CHANHASSEN MN
700 PM CDT TUE MAY 05 2015


NOTE: "FAIR" INDICATES FEW OR NO CLOUDS BELOW 12,000 FEET WITH NO
SIGNIFICANT WEATHER AND/OR OBSTRUCTIONS TO VISIBILITY. N/A MEANS
CURRENT SKY AND/OR WEATHER CONDITIONS ARE NOT AVAILABLE.

MNZ060>063-068>070-060100-
   Twin Cities Metro

CITY           SKY/WX    TMP DP  RH WIND       PRES   REMARKS
TWIN CITIES    CLOUDY    64  51  62 SE16      30.12S
6HR MIN TEMP:  64; 6HR MAX TEMP:  70;

ST PAUL        CLOUDY    64  51  62 SE17G24   30.13F
CRYSTAL        CLOUDY    66  49  54 SE12      30.10F
BLAINE         PTSUNNY   66  48  52 SE14      30.11F
LAKEVILLE      DRIZZLE   57  54  88 SE10      30.13S
EDEN PRAIRIE   CLOUDY    63  52  67 SE13      30.10S
6HR MIN TEMP:  63; 6HR MAX TEMP:  71;

SOUTH ST PAUL  CLOUDY    64  49  58 SE6       30.12S
LAKE ELMO      PTSUNNY   64  46  52 SE7       30.13F
$$
MNZ001>005-007-008-013>017-022>024-027-028-060100-
   Northwest Minnesota

CITY           SKY/WX    TMP DP  RH WIND       PRES   REMARKS
BEMIDJI        SUNNY     70  34  26 SE13      30.04F
HALLOCK        MOSUNNY   75   1   5 S17       29.97S
ROSEAU         SUNNY     75  12   9 S13       30.01F
WARROAD        SUNNY     73  28  19 SE10      30.03F
THIEF RVR FALL MOSUNNY   73  25  16 S14       30.00F
CROOKSTON      PTSUNNY   75  27  16 S15       29.98F
FOSSTON        MOSUNNY   73  28  19 SE12      30.02S
DETROIT LAKES  SUNNY     72  45  37 S18       30.03S
MOORHEAD       MOSUNNY   73  46  38 S21G28    29.98S
PARK RAPIDS    SUNNY     74  39  28 SE17G25   30.04F
MAHNOMEN       FAIR      72  40  30 S13       30.00F
$$
MNZ006-009>011-018-025>026-060100-
   North Central Minnesota

CITY           SKY/WX    TMP DP  RH WIND       PRES   REMARKS
BAUDETTE       SUNNY     73  22  14 S10       30.04F
FLAG ISLAND    SUNNY     66  46  48 CALM      30.04S
INTL FALLS     SUNNY     71  23  16 SE8       30.07S
6HR MIN TEMP:  70; 6HR MAX TEMP:  74;

WASKISH        MOSUNNY   72  30  21 CALM      30.05S
BIG FORK       MOSUNNY   72  28  20 S8G16     30.08F
LONGVILLE      SUNNY     72  36  26 S9G18     30.07F
GRAND RAPIDS   MOSUNNY   72  30  21 S10G16    30.09F
CRANE LAKE     MOSUNNY   70  18  13 SE3       30.12S
ORR            SUNNY     72  21  15 SE7       30.07F
COOK           SUNNY     70  30  23 S7        30.11S
WALKER         FAIR      70  37  29 SE7       30.05F
$$
MNZ012-019>021-037-060100-
   Northeast Minnesota

CITY           SKY/WX    TMP DP  RH WIND       PRES   REMARKS
DULUTH         SUNNY     64  27  24 E13       30.14S
6HR MIN TEMP:  64; 6HR MAX TEMP:  71;

ELY            SUNNY     70  25  18 S12       30.13S
HIBBING        MOSUNNY   71  28  20 SE14      30.10F
EVELETH        MOSUNNY   70  28  21 S13       30.13S
DULUTH HARBOR    N/A     46  37  71 NE8       30.16S
TWO HARBORS    SUNNY     64  34  32 NE14      30.15R
SILVER BAY     SUNNY     61  25  25 NE6       30.16S
GRAND MARAIS     N/A     48  29  47 NE10      30.19S
G MARAIS ARPRT SUNNY     59  21  23 E6        30.21S
$$
MNZ029>031-032-039>041-046>048-054>057-064-060100-
   West Central Minnesota

CITY           SKY/WX    TMP DP  RH WIND       PRES   REMARKS
FERGUS FALLS   PTSUNNY   70  52  52 SE18      30.01S
WHEATON        MOSUNNY   66  54  63 SE23G29   30.01R
MORRIS         CLOUDY    68  54  60 SE25      30.01S
ALEXANDRIA     MOSUNNY   66  52  60 SE16      30.06F
ELBOW LAKE     FAIR      67  54  61 SE21G26   30.02S
WADENA         PTSUNNY   68  46  45 S17       30.05R
GLENWOOD       PTSUNNY   66  54  63 SE15      30.06F
APPLETON       PTSUNNY   66  54  63 SE15G22   30.02S
BENSON         CLOUDY    64  52  63 S14G20    30.04S
ORTONVILLE     CLOUDY    66  54  63 SE18G25   30.01S
MADISON        CLOUDY    64  54  68 SE21      30.02F
WILLMAR        PTSUNNY   64  54  68 SE18      30.08S
$$
MNZ033>034-036-042>043-049>051-058-059-060100-
   Central Minnesota

CITY           SKY/WX    TMP DP  RH WIND       PRES   REMARKS
ST CLOUD       CLOUDY    67  46  47 SE13      30.08F
6HR MIN TEMP:  66; 6HR MAX TEMP:  74;

SAUK CENTRE    CLOUDY    66  52  61 SE20      30.07S
PAYNESVILLE    CLOUDY    62  50  66 E15G22    30.08S
AITKIN         PTSUNNY   72  28  20 S12G18    30.07F
PINE RIVER     SUNNY     72  45  37 SE10      30.09F
BRAINERD       CLOUDY    69  39  33 S10G17    30.08S
STAPLES        CLOUDY    68  41  37 S14G23    30.06S
LONG PRAIRIE   CLOUDY    64  50  59 SE16G22   30.07S
LITTLE FALLS   CLOUDY    68  41  37 SE10G18   30.08S
LITCHFIELD     CLOUDY    64  52  63 SE12      30.09S
BUFFALO        CLOUDY    64  49  57 SE13G20   30.11S
MAPLE LAKE     CLOUDY    65  53  63 SE10      30.10F
$$
MNZ037-044-045-052-053-060100-
   East Central Minnesota

CITY           SKY/WX    TMP DP  RH WIND       PRES   REMARKS
PRINCETON      PTSUNNY   70  37  30 E13       30.10S
MORA           PTSUNNY   66  36  32 SE13G18   30.13S
CAMBRIDGE      MOSUNNY   70  45  40 SE10G22   30.09F
RUSH CITY      PTSUNNY   69  37  30 SE7G16    30.11F
MOOSE LAKE     SUNNY     72  36  26 SE6       30.09S
HINCKLEY       MOCLDY    70  37  30 S10G18    30.11S
CLOQUET        SUNNY     63  25  23 E9        30.13F
MCGREGOR       SUNNY     70  34  26 S8        30.10S
$$
MNZ071>073-080-081-089-090-097-098-060100-
   Southwest Minnesota

CITY           SKY/WX    TMP DP  RH WIND       PRES   REMARKS
MONTEVIDEO     CLOUDY    63  54  72 S15       30.05S
GRANITE FALLS  CLOUDY    60  53  77 E16G22    30.06F
CANBY          CLOUDY    62  55  76 SE15      30.03F
MARSHALL       CLOUDY    61  52  72 SE18      30.03F
REDWOOD FALLS  CLOUDY    60  54  80 SE15G23   30.06F
OLIVIA         CLOUDY    57  50  77 SE15G24   30.07R
PIPESTONE      CLOUDY    64  57  77 SE10      30.02S
WINDOM         CLOUDY    59  55  88 SE13      30.07S
WORTHINGTON    CLOUDY    59  54  82 E15       30.05F
JACKSON        CLOUDY    59  55  88 E14       30.07F
TRACY          CLOUDY    62  56  82 SE15      30.05S
SLAYTON        CLOUDY    61  57  88 SE16      30.05S
$$
MNZ065>067-074>077-082>085-091>093-060100-
   South Central Minnesota

CITY           SKY/WX    TMP DP  RH WIND       PRES   REMARKS
MANKATO        CLOUDY    55  54  94 SE17      30.11S
NEW ULM        CLOUDY    57  54  88 SE9       30.09R
ST JAMES       CLOUDY    57  54  88 E12       30.09S
FAIRMONT       CLOUDY    57  52  82 E15       30.07F
GLENCOE        DRIZZLE   60  56  88 SE14      30.09S
FARIBAULT      CLOUDY    55  52  88 SE14      30.13S
OWATONNA       CLOUDY    55  52  88 E14       30.13S
WASECA         DRIZZLE   54  52  94 E17       30.12F
ALBERT LEA     CLOUDY    54  54 100 E10G16    30.12S
$$
MNZ078>079-086>088-094>096-060100-
   Southeast Minnesota

CITY           SKY/WX    TMP DP  RH WIND       PRES   REMARKS
ROCHESTER      CLOUDY    52  51  97 E14       30.16S
6HR MIN TEMP:  52; 6HR MAX TEMP:  57; 6HR PCP:  0.17;

RED WING       LGT RAIN  61  50  67 SE10      30.13S
STANTON        LGT RAIN  58  53  84 SE10G16   30.13R
DODGE CENTER   CLOUDY    54  52  94 SE15G21   30.14S
WINONA         DRIZZLE   55  54  94 SE10      30.17F
AUSTIN         DRIZZLE   54  52  94 E12G17    30.13S
PRESTON        CLOUDY    51  50  95 E8        30.17R
$$
ABBREVIATIONS USED IN REMARKS
   TC - TEMPERATURES IN CELSIUS
  WCI - WIND CHILL INDEX
   HX - HEAT INDEX
  VSB - VISIBILITY
$$



USA.gov is the U.S. government's official web portal to all federal, state and local government web resources and services.